Location: Croydon
(51.3762°N, 0.0982°W)
Time: 15:06:05
(UTC+00:00)

KKS-1 - Pass Details

Date: 18 October 2019
Orbit: 636 x 651 km, 98.3° (Epoch: 20 November)

Event Time Altitude Azimuth Distance (km) Brightness Sun altitude
Rises 20:57:06 0° 13° (NNE) 2,964 ? -27.8°
Reaches altitude 10° 20:59:20 10° 11° (N) 2,048 ? -28.1°
Enters shadow 20:59:52 13° 10° (N) 1,832 ? -28.2°
